Theta_e
292 288 286 290 289 288 287 284 284 287 291 289 289 288 293 292 290 290 291 291 292 293 296 293 294 295 295 296 296 296 300 301 300 299 299 298 295 295 295 295 297 301 299 298
289 286 292 293 291 289 287 285 285 288 290 289 289 289 292 293 291 293 295 294 294 294 290 291 293 294 295 299 297 295 300 299 300 301 296 295 295 292 292 292 292 293 293 292
288 291 293 292 289 288 286 285 285 287 288 287 285 285 287 291 292 294 295 297 297 295 292 290 292 293 295 298 297 296 300 299 300 294 293 292 292 291 290 290 290 290 290 289
289 292 291 289 288 290 284 289 288 287 285 282 286 281 286 290 291 290 294 295 294 292 291 291 292 292 294 298 297 298 300 299 297 295 294 294 295 292 290 289 288 287 288 287
288 289 289 288 289 291 287 289 287 286 283 281 280 280 284 286 287 291 296 295 292 291 292 291 292 293 295 298 297 298 299 299 294 295 295 295 294 288 288 287 286 285 286 286
289 291 291 291 290 291 290 288 286 284 283 279 283 284 287 287 289 291 293 292 292 291 289 290 291 293 293 297 299 299 299 296 294 293 294 293 288 287 286 285 284 284 284 284
287 288 290 291 288 289 288 286 280 278 276 280 280 281 289 291 291 291 293 292 290 289 288 288 289 291 292 296 298 298 297 293 293 293 292 290 289 288 286 285 284 283 282 282
284 282 288 290 291 288 286 286 281 274 275 278 281 279 285 290 292 291 291 290 290 289 287 288 289 291 292 295 298 297 294 292 292 292 290 290 289 288 287 286 284 284 283 282
283 284 287 288 288 292 285 283 288 282 270 274 281 284 289 289 290 291 291 289 290 288 286 287 289 291 292 295 296 295 293 292 291 291 289 288 288 287 285 284 284 283 282 282
288 283 285 287 289 288 287 289 282 280 272 271 279 280 284 288 291 290 290 289 289 286 286 287 288 289 292 294 295 293 294 292 291 290 289 288 287 286 285 284 282 282 282 282
289 287 283 285 284 285 285 284 283 285 280 274 273 282 287 289 290 289 289 289 289 287 286 286 287 288 291 292 291 291 292 290 289 289 288 287 286 285 284 283 282 282 281 280
291 286 278 283 285 287 286 286 287 284 278 279 278 284 289 290 289 288 290 289 287 287 286 286 286 286 287 287 287 290 290 289 289 288 286 286 284 284 283 282 281 281 279 279
293 288 282 284 286 287 285 286 290 287 285 280 277 285 288 289 289 289 290 288 288 285 284 285 284 285 286 287 287 287 289 289 287 286 286 284 283 283 282 281 281 279 278 278
298 289 285 284 284 286 283 285 287 289 284 283 285 289 290 287 289 290 288 288 286 285 284 283 284 285 285 286 286 286 286 287 286 285 285 283 283 283 282 281 280 279 278 277
295 287 287 289 287 286 285 286 287 286 288 285 289 287 292 295 295 296 293 289 287 285 284 284 284 284 285 285 285 285 285 284 285 284 284 283 283 282 281 280 280 278 278 278
294 287 286 286 287 285 283 285 287 288 289 289 290 288 296 294 295 293 292 291 288 288 286 285 284 284 284 285 285 285 284 283 284 284 283 283 282 281 280 279 279 278 277 277
290 288 286 285 288 286 283 288 288 288 290 290 286 291 296 293 293 293 294 292 290 289 289 286 285 285 285 285 286 285 284 283 283 283 283 282 282 280 280 279 278 277 277 277
290 288 287 285 285 279 288 290 293 291 291 292 292 294 296 294 295 295 294 292 291 290 290 288 287 286 285 286 285 285 284 282 283 282 281 282 281 280 279 278 278 277 277 277
291 287 285 283 283 287 284 285 286 287 289 294 292 294 295 295 289 293 291 292 293 292 291 291 290 287 284 284 284 283 281 282 282 281 281 281 281 280 278 278 278 278 277 276
289 289 284 284 281 279 288 289 287 290 285 293 293 294 294 290 285 293 293 290 289 288 288 288 287 284 283 282 283 282 281 281 281 282 282 281 281 280 279 279 278 278 278 277
281 284 281 282 281 284 282 281 284 283 284 285 291 293 293 288 292 289 286 286 285 285 284 284 283 282 282 282 282 281 281 281 282 282 281 281 281 280 280 279 278 278 277 276
281 281 281 282 280 279 282 285 283 286 280 280 282 285 284 286 287 287 286 286 286 283 283 281 279 279 279 281 282 280 280 281 281 281 280 280 280 280 280 279 278 277 277 276
279 280 278 283 282 284 283 283 288 286 284 285 285 286 286 286 286 285 285 285 285 282 281 278 278 278 277 279 280 279 280 282 282 281 281 281 281 280 280 279 277 277 277 276
282 285 283 284 285 286 285 286 285 285 285 288 288 286 286 286 285 285 282 283 282 277 278 276 278 277 276 276 279 282 282 282 283 282 282 282 281 280 280 281 279 278 276 276
281 284 283 283 284 284 286 286 291 289 285 283 283 286 287 286 283 283 281 279 281 279 276 276 278 277 276 274 274 276 279 282 282 282 281 281 282 281 280 280 279 278 278 278
281 281 281 281 285 286 287 287 287 285 286 284 282 280 280 283 283 280 279 280 279 278 275 275 273 273 272 274 272 272 276 280 278 276 279 280 280 280 279 278 275 282 281 281
Wind_Speed
2 4 8 16 9 4 6 5 6 5 4 5 9 9 16 6 6 10 13 13 16 20 18 9 10 8 7 6 7 7 8 8 7 4 3 3 3 3 4 4 6 7 7 8
4 8 13 5 5 4 3 3 6 6 3 5 9 14 13 13 10 13 18 18 21 15 9 8 10 10 10 10 9 8 8 9 7 5 3 3 4 4 3 4 7 6 8 8
9 5 6 9 5 5 5 6 5 8 4 4 6 9 8 8 8 15 18 21 15 17 13 10 12 14 12 14 12 10 9 9 8 7 7 6 6 5 3 4 4 4 7 7
7 3 6 5 6 9 6 8 5 4 3 5 3 12 5 8 12 6 18 15 13 10 9 12 15 14 17 15 11 12 11 11 8 10 7 12 6 6 3 4 4 5 6 7
9 9 6 5 7 9 7 5 7 3 4 3 1 6 2 1 6 15 19 13 10 10 13 15 18 18 13 14 12 11 12 11 11 10 9 8 7 5 7 6 8 7 5 6
4 2 7 8 3 5 8 6 5 4 2 5 10 8 3 6 8 7 7 7 7 7 8 6 7 9 12 13 12 13 14 11 11 11 10 10 13 12 10 9 8 6 5 5
2 5 3 4 7 3 3 7 2 4 1 9 1 5 16 7 7 8 11 8 5 4 6 8 11 12 13 17 15 13 15 13 13 13 12 11 13 14 15 13 10 11 8 5
9 7 12 8 10 9 10 9 8 8 5 5 1 11 9 8 11 9 8 6 7 6 5 8 11 13 14 17 16 15 15 14 14 13 11 10 12 9 8 9 9 7 7 8
7 7 1 2 2 10 7 8 4 4 3 2 7 9 9 8 11 11 10 6 8 7 7 7 7 10 13 16 17 17 16 14 14 13 11 11 11 12 11 10 9 7 8 8
7 1 1 2 2 3 6 8 5 2 3 6 6 8 10 6 8 8 7 8 8 4 6 8 8 8 8 10 10 11 14 15 14 13 11 10 11 11 11 10 11 11 10 11
6 4 1 3 7 11 4 4 3 6 5 5 3 11 9 9 6 5 6 7 6 6 5 5 5 5 7 7 7 8 10 11 12 12 12 12 11 11 11 10 10 10 10 10
8 5 4 9 2 3 1 7 7 6 6 4 2 17 3 7 5 2 8 5 2 4 7 7 8 9 9 9 9 11 11 11 10 9 9 10 11 10 11 10 11 11 11 10
10 3 2 2 3 1 5 7 15 5 4 11 6 13 3 2 4 5 6 4 1 3 4 6 6 8 9 10 11 12 14 15 14 13 13 11 11 12 12 12 12 11 12 10
7 6 8 9 5 7 8 10 13 16 8 6 24 20 13 4 5 8 2 4 5 6 7 7 7 9 10 10 11 11 10 11 13 13 14 15 15 14 12 12 12 11 11 12
8 9 13 17 5 5 6 12 19 21 26 15 28 21 31 19 16 18 7 5 5 6 8 10 11 10 10 10 10 9 8 9 11 13 14 14 13 14 13 13 13 12 10 10
4 5 8 11 10 7 4 9 18 27 26 22 24 23 24 7 7 6 10 9 9 9 10 9 9 10 13 14 14 13 12 12 13 15 14 14 14 14 14 14 13 12 12 11
10 9 8 14 12 9 11 31 17 14 23 24 23 36 29 8 9 8 11 10 10 10 12 11 14 15 14 17 16 18 15 13 15 14 12 13 14 14 15 14 14 14 14 13
4 8 7 12 5 15 11 5 19 23 24 23 24 30 28 14 10 12 10 5 11 10 9 9 10 12 15 13 13 11 12 14 14 13 13 13 14 15 15 16 16 14 13 14
12 2 5 7 13 14 5 9 11 15 25 27 29 30 28 17 4 23 9 12 12 10 9 9 9 8 7 12 12 11 12 13 13 14 14 14 15 15 15 16 16 14 13 12
16 17 11 7 11 15 17 12 7 7 14 17 19 27 24 5 8 18 8 6 5 5 5 6 6 6 10 9 13 14 13 14 15 14 14 15 16 16 17 16 15 12 11 11
2 6 18 17 14 5 5 1 2 14 10 6 16 23 17 9 9 2 3 3 1 0 3 2 4 6 7 11 12 12 13 16 12 12 12 13 13 14 14 13 10 11 11 9
9 7 6 6 10 13 8 3 10 7 1 2 2 4 4 4 6 5 4 4 5 2 3 4 5 4 4 7 10 10 11 8 10 12 12 11 11 10 10 14 11 12 11 10
6 4 3 7 5 3 5 3 5 2 3 5 4 5 6 6 6 6 5 6 4 3 3 2 5 6 5 7 7 8 7 11 13 14 14 13 13 12 13 14 13 11 11 10
5 4 4 3 5 4 1 4 5 4 4 8 5 5 7 7 8 7 5 5 5 3 3 3 6 6 5 3 4 6 9 10 12 12 12 12 12 11 11 9 9 9 10 9
4 10 9 9 12 8 8 8 8 8 7 7 6 4 5 2 2 4 4 3 4 4 2 2 6 6 6 5 6 6 8 11 10 10 9 10 9 11 10 9 10 10 11 14
5 7 5 7 7 4 5 2 3 5 15 8 7 4 3 4 5 3 4 4 5 5 3 3 2 4 5 6 6 5 7 9 10 8 8 8 8 8 7 8 4 15 13 18
Wind_Direction
28 114 195 211 196 152 144 188 224 238 235 195 227 241 263 235 234 253 244 238 234 230 235 189 188 172 168 174 166 173 159 159 144 135 128 107 103 93 68 66 86 97 111 113
61 227 225 115 151 170 160 215 251 282 242 188 271 259 251 255 225 227 241 237 233 231 198 187 176 175 180 181 179 176 171 164 163 153 115 121 126 75 94 81 72 86 106 115
175 209 145 153 156 164 216 202 220 223 323 242 320 269 231 269 243 251 249 247 244 226 210 186 185 188 177 191 181 174 172 169 166 136 115 103 96 94 77 79 86 75 95 103
238 234 143 174 191 154 236 206 188 231 67 252 23 287 210 234 243 246 256 250 241 214 194 191 189 186 188 191 171 170 171 172 161 157 151 160 158 157 143 118 118 102 109 118
236 168 167 180 202 171 225 135 169 160 178 355 322 276 203 171 246 251 255 254 235 212 198 196 192 193 182 175 171 169 169 173 164 166 168 160 143 111 126 125 123 120 111 120
231 151 170 194 126 159 147 85 56 53 102 277 193 187 134 186 208 252 249 258 267 238 213 187 174 160 163 171 170 168 169 171 169 169 169 164 149 147 141 148 145 143 127 115
123 215 188 156 96 59 134 106 307 327 1 242 359 228 261 284 245 234 256 286 302 261 192 170 162 166 169 176 173 173 173 173 172 173 170 163 160 161 160 161 158 152 147 145
175 273 168 191 181 170 199 161 164 216 213 272 25 241 253 229 263 274 271 268 268 236 207 183 176 174 177 179 174 172 174 172 174 173 168 161 156 158 158 161 156 152 151 144
162 263 209 134 116 151 196 205 155 81 81 20 224 287 289 259 273 275 290 268 258 233 201 181 175 178 178 181 181 176 173 172 175 176 166 164 159 157 161 152 150 142 137 141
207 231 42 131 98 24 160 168 90 1 200 258 278 270 229 264 268 322 325 289 279 231 189 173 173 174 181 183 177 175 177 173 173 167 166 166 164 160 155 155 153 148 144 144
153 133 3 113 204 175 154 188 117 129 147 181 302 261 215 210 202 255 294 295 272 236 200 175 160 165 168 157 165 171 175 171 173 171 168 164 163 161 156 161 152 146 141 143
191 128 167 203 259 233 223 199 151 155 210 242 164 265 182 210 191 253 267 303 344 217 180 174 171 162 166 169 167 172 172 171 174 169 163 162 157 156 161 158 155 153 151 149
168 170 138 289 327 345 207 208 205 103 100 214 157 258 353 212 232 252 267 318 242 204 174 153 167 178 186 190 188 181 178 176 168 161 161 162 165 164 166 164 158 151 148 144
102 162 201 234 191 142 195 194 201 199 210 190 231 258 247 243 286 290 237 184 201 208 193 183 186 192 190 193 195 197 187 176 166 164 169 165 168 172 171 161 158 153 156 147
160 209 206 229 208 160 202 199 200 205 217 199 250 235 254 240 248 256 269 199 181 209 214 208 201 201 198 194 193 192 188 172 166 169 173 175 167 163 162 158 156 147 151 147
180 238 175 243 199 177 210 220 211 214 222 231 249 257 249 198 232 219 225 233 214 217 224 214 204 196 201 199 195 188 187 178 171 178 181 171 166 161 161 156 153 148 148 147
180 196 190 245 208 182 230 232 214 220 224 219 231 240 256 246 217 231 249 225 223 222 224 203 205 205 204 205 194 197 185 169 179 179 174 169 164 162 160 154 154 161 162 156
283 209 201 241 127 223 235 208 213 213 225 225 245 252 254 242 248 242 238 177 231 224 219 213 209 214 209 198 196 184 173 176 180 177 167 164 164 163 161 159 165 162 162 165
212 213 246 230 245 265 277 217 164 184 236 222 224 248 260 262 349 269 186 216 231 223 225 228 214 202 168 178 172 164 164 171 178 182 170 166 165 165 162 167 167 166 164 163
223 222 230 211 236 246 243 216 155 114 248 238 202 233 245 173 225 265 203 211 262 259 245 243 215 178 157 175 159 161 169 173 187 182 172 165 169 170 170 168 167 169 170 166
154 212 222 236 246 275 266 304 115 179 239 207 196 218 234 194 219 168 137 113 76 351 323 346 160 172 163 144 154 163 167 188 175 162 160 164 169 163 160 156 159 156 162 153
193 193 210 215 242 252 167 84 170 217 263 197 233 221 200 198 165 199 196 177 150 129 65 80 114 109 111 136 154 165 180 155 144 147 148 153 149 150 152 150 153 155 159 169
247 217 211 204 216 186 248 315 307 353 209 204 191 193 200 202 212 192 209 179 164 144 118 117 136 127 133 150 151 154 156 145 149 148 153 157 154 160 163 163 165 163 172 178
242 149 227 342 281 265 299 288 230 273 298 323 283 188 185 182 184 195 191 187 179 161 166 148 135 144 158 146 129 137 143 145 149 152 157 155 159 165 169 173 174 173 173 180
203 155 187 237 257 309 259 238 251 263 242 248 249 211 214 210 232 199 195 185 188 163 162 172 165 167 165 143 132 136 143 145 153 154 152 157 168 174 172 183 181 186 193 192
197 189 189 236 231 227 271 249 172 232 260 237 212 237 220 178 217 168 207 174 165 166 153 131 139 134 152 141 142 146 145 152 146 141 152 161 161 169 171 175 174 200 199 206